Location: Hains Lake
(37.8540°N, 99.8578°W)
Time: 16:32:42
(UTC+00:00)

Vanguard 1 - Pass Details

Date: 06 December 2021
Orbit: 652 x 3830 km, 34.2° (Epoch: 22 January)

Event Time Altitude Azimuth Distance (km) Brightness Sun altitude
Rises 05:22:12 0° 232° (SW) 6,588 14.3 -68.8°
Reaches altitude 10° 05:26:04 10° 229° (SW) 5,900 14.0 -69.4°
Enters shadow 05:27:03 13° 228° (SW) 5,735 13.9 -69.5°
Exits shadow 06:08:17 10° 80° (E) 6,473 14.1 -73.9°
Drops below altitude 10° 06:08:21 10° 80° (E) 6,484 14.1 -73.9°
Sets 06:12:50 0° 78° (ENE) 7,240 14.5 -74.2°
